sat.trackr.live / text

‹ back to catalog

STARLINK-32422

NORAD 61592 · 2024-187U

PAYLOAD ACTIVE UNKNOWN

§ Identity

Operator
Country
US
Launch date
2024-10-18
Launch site
AFETR
Launch vehicle
Mass (kg)
RCS (m²)

Purposes: comms

External: N2YO · Heavens-Above · Gunter

§ Orbital elements

Epoch: 2026-05-25T02:58:01.027200Z

Period
94.11 min
Inclination
53.1601°
Eccentricity
0.0000963
Mean motion
15.30179245 rev/d
Perigee alt
474.6 km
Apogee alt
475.9 km
Semi-major
6,853.4 km
B*
-6.3047e-5
RAAN
54.5358°
Arg perigee
92.3182°
Mean anomaly
267.7929°
Rev number
9,100

§ Raw data

STARLINK-324221 61592U 24187U   26145.12362300 -.00002224  00000+0 -63047-4 0  99952 61592  53.1601  54.5358 0000963  92.3182 267.7929 15.30179245 91003

JSON: /api/v1/satellites/61592 · /tle

For live sub-satellite position, see the globe view (requires WebGL).

§ Visibility from observer

Set your observer location to see the next 7 days of passes ≥ 10°. The values pass through the URL so the page stays shareable.

No JS? Fill the form by hand. The geolocation button needs JavaScript.